Regional Weather Roundup
Issued by NWS

Home | Current Version | Previous Version | Text Only | Print | Product List | Glossary On
Versions: 1 2 3 4 5 6 7 8 9 10 11 12 13 14 15 16 17 18 19 20 21 22 23 24 25 26 27 28 29 30 31 32 33 34 35 36 37 38 39 40 41 42 43 44 45 46 47 48 49 50
000
ASUS43 KMPX 221610
RWRMN
WEATHER ROUNDUP FOR MINNESOTA
NATIONAL WEATHER SERVICE TWIN CITIES/CHANHASSEN MN
1100 AM CDT MON MAY 22 2017


NOTE: "FAIR" INDICATES FEW OR NO CLOUDS BELOW 12,000 FEET WITH NO
SIGNIFICANT WEATHER AND/OR OBSTRUCTIONS TO VISIBILITY. N/A MEANS
CURRENT SKY AND/OR WEATHER CONDITIONS ARE NOT AVAILABLE.

MNZ060>063-068>070-221700-
   Twin Cities Metro

CITY           SKY/WX    TMP DP  RH WIND       PRES   REMARKS
TWIN CITIES    MOSUNNY   59  42  53 W17G25    29.86F
ST PAUL        MOSUNNY   59  44  57 W14       29.86F
CRYSTAL        MOSUNNY   58  41  53 W16       29.84F
BLAINE         MOSUNNY   59  45  58 W10G17    29.85S
LAKEVILLE      SUNNY     59  45  58 W13       29.86F
EDEN PRAIRIE   SUNNY     59  43  55 W12       29.85F
SOUTH ST PAUL  MOSUNNY   59  43  55 W10       29.85S
LAKE ELMO      PTSUNNY   59  46  63 W17       29.86S
$$
MNZ001>005-007-008-013>017-022>024-027-028-221700-
   Northwest Minnesota

CITY           SKY/WX    TMP DP  RH WIND       PRES   REMARKS
BEMIDJI        CLOUDY    49  44  84 W9        29.78S
HALLOCK        CLOUDY    52  46  82 N18       29.82S
ROSEAU         CLOUDY    50  45  81 NW15      29.78S
WARROAD        CLOUDY    46  43  87 NW9       29.78R
THIEF RVR FALL CLOUDY    48  43  82 N12       29.82R
CROOKSTON      DRIZZLE   48  45  87 N14       29.84R
FOSSTON        CLOUDY    48  43  81 NW13      29.81S
DETROIT LAKES  CLOUDY    52  43  71 NW14      29.83S
MOORHEAD       MOSUNNY   55  46  71 NW16      29.85S
PARK RAPIDS    CLOUDY    53  41  63 NW14      29.80S
MAHNOMEN       CLOUDY    51  45  79 NW15      29.82S
$$
MNZ006-009>011-018-025>026-221700-
   North Central Minnesota

CITY           SKY/WX    TMP DP  RH WIND       PRES   REMARKS
BAUDETTE       CLOUDY    49  44  83 NW10      29.75S
FLAG ISLAND    LGT RAIN  45  39  81 N13       29.76S
INTL FALLS     CLOUDY    49  43  80 NW9       29.72S
WASKISH        CLOUDY    48  43  81 NW8       29.76S
BIG FORK       LGT RAIN  48  43  81 CALM      29.75S
LONGVILLE      CLOUDY    50  45  81 W6        29.79S
GRAND RAPIDS   CLOUDY    48  44  86 W9G16     29.79R
CRANE LAKE     CLOUDY    46  45  93 NW3       29.74R
ORR            CLOUDY    46  41  81 W6        29.71S
COOK           CLOUDY    48  45  87 W10       29.74S
WALKER         CLOUDY    48  42  80 W9G17     29.79S
$$
MNZ012-019>021-037-221700-
   Northeast Minnesota

CITY           SKY/WX    TMP DP  RH WIND       PRES   REMARKS
DULUTH         LGT RAIN  48  46  93 W13       29.76R
ELY            DRIZZLE   46  45  93 W8        29.72R
HIBBING        CLOUDY    47  44  90 NW7       29.75R
EVELETH        CLOUDY    48  41  76 W9        29.75R
DULUTH HARBOR  CLOUDY    52  46  82 W14       29.78R
TWO HARBORS    CLOUDY    52  46  82 W13       29.73S
SILVER BAY     CLOUDY    52  45  76 W6        29.71S
GRAND MARAIS     N/A     43  41  93 W9        29.71S
G MARAIS ARPRT CLOUDY    46  41  81 S5        29.70R
$$
MNZ029>031-032-039>041-046>048-054>057-064-221700-
   West Central Minnesota

CITY           SKY/WX    TMP DP  RH WIND       PRES   REMARKS
FERGUS FALLS   CLOUDY    54  45  71 NW14      29.84F
WHEATON        CLOUDY    54  43  66 NW8       29.89S
MORRIS         MOSUNNY   54  43  66 NW9       29.87S
ALEXANDRIA     MOSUNNY   54  42  64 MISG      29.86F
ELBOW LAKE     FAIR      53  44  72 NW10      29.86F
WADENA         CLOUDY    54  45  71 W13       29.82F
GLENWOOD       CLOUDY    54  43  66 NW12G20   29.87S
APPLETON       SUNNY     57  41  54 NW12      29.88S
BENSON         SUNNY     57  43  58 N12       29.90R
ORTONVILLE     MOSUNNY   55  43  62 W5        29.88S
MADISON        SUNNY     57  48  72 N6        29.88F
WILLMAR        FAIR      57  46  67 NW10      29.89S
$$
MNZ033>034-036-042>043-049>051-058-059-221700-
   Central Minnesota

CITY           SKY/WX    TMP DP  RH WIND       PRES   REMARKS
ST CLOUD       PTSUNNY   55  44  66 W13       29.84S
SAUK CENTRE    FAIR      54  41  62 NW15      29.85S
PAYNESVILLE    PTSUNNY   54  42  64 NW12      29.87S
AITKIN         CLOUDY    48  43  81 W6        29.79S
PINE RIVER     CLOUDY    50  43  76 W7        29.84S
BRAINERD       LGT RAIN  49  43  80 W12       29.82S
STAPLES        PTSUNNY   54  45  71 W12       29.82F
LONG PRAIRIE   FAIR      52  41  66 W12G17    29.85S
LITTLE FALLS   PTSUNNY   52  41  66 W12       29.84S
LITCHFIELD     SUNNY     57  45  62 W10       29.86F
BUFFALO        SUNNY     56  41  56 W9G16     29.87S
MAPLE LAKE     MOSUNNY   58  46  63 NW8       29.87S
HUTCHINSON     CLOUDY    58  49  71 W7        29.88F
$$
MNZ037-044-045-052-053-221700-
   East Central Minnesota

CITY           SKY/WX    TMP DP  RH WIND       PRES   REMARKS
PRINCETON      PTSUNNY   55  45  67 W14G20    29.84S
MORA           CLOUDY    50  41  71 NW8       29.84S
CAMBRIDGE      PTSUNNY   55  43  62 W14       29.82S
RUSH CITY      CLOUDY    52  43  71 W9        29.83S
MOOSE LAKE     CLOUDY    50  43  76 W7        29.77S
HINCKLEY       CLOUDY    50  45  81 W10       29.82R
CLOQUET        DRIZZLE   48  45  87 W12G17    29.77S
MCGREGOR       CLOUDY    46  45  93 W6        29.80S
$$
MNZ071>073-080-081-089-090-097-098-221700-
   Southwest Minnesota

CITY           SKY/WX    TMP DP  RH WIND       PRES   REMARKS
MONTEVIDEO     SUNNY     57  46  67 VRB6      29.89R
CANBY          SUNNY     57  49  72 CALM      29.89F
MARSHALL       SUNNY     57  47  69 N8        29.88F
REDWOOD FALLS  SUNNY     58  43  57 CALM      29.88S
OLIVIA         SUNNY     55  46  71 NW7       29.87F
PIPESTONE      SUNNY     63  34  34 CALM      29.87S
WINDOM         SUNNY     61  46  59 N7        29.88S
WORTHINGTON    SUNNY     62  42  47 VRB3      29.88F
JACKSON        SUNNY     59  48  67 VRB5      29.88S
TRACY          SUNNY     58  48  67 NE6       29.88S
SLAYTON        SUNNY     58  46  64 NE5       29.89S
$$
MNZ065>067-074>077-082>085-091>093-221700-
   South Central Minnesota

CITY           SKY/WX    TMP DP  RH WIND       PRES   REMARKS
MANKATO        MOSUNNY   59  45  58 CALM      29.87F
NEW ULM        SUNNY     59  45  58 CALM      29.87F
ST JAMES       SUNNY     59  48  67 CALM      29.89S
FAIRMONT       SUNNY     60  47  61 N9        29.88S
GLENCOE        SUNNY     58  49  74 W8        29.87S
FARIBAULT      SUNNY     61  46  59 W5        29.87F
OWATONNA       SUNNY     59  46  63 CALM      29.87F
WASECA         SUNNY     59  46  63 NW3       29.89S
ALBERT LEA     SUNNY     61  48  63 N9        29.87F
$$
MNZ078>079-086>088-094>096-221700-
   Southeast Minnesota

CITY           SKY/WX    TMP DP  RH WIND       PRES   REMARKS
ROCHESTER      SUNNY     59  50  72 W7        29.89F
RED WING       SUNNY     61  39  44 W14       29.85F
STANTON        SUNNY     60  45  58 W6        29.85F
DODGE CENTER   SUNNY     59  46  63 W7        29.87F
WINONA         SUNNY     59  46  63 SW5       29.88F
AUSTIN         SUNNY     61  48  63 NW6       29.87S
PRESTON        SUNNY     58  48  67 W6        29.89S
$$
ABBREVIATIONS USED IN REMARKS
   TC - TEMPERATURES IN CELSIUS
  WCI - WIND CHILL INDEX
   HX - HEAT INDEX
  VSB - VISIBILITY
$$




USA.gov is the U.S. government's official web portal to all federal, state and local government web resources and services.